User: anonymous   Login
Location: Meriden
(44.0740°N, 93.3870°W)
Time: 02:22:50
(UTC-05:00)
Language:

AO-27 - Orbit

View from above orbital plane
View from above orbital plane
View from above satellite
View from above satellite

Ground track
Ground track

The orbit data is extracted from the following two-line orbital elements,

1 22825U 93061C   16211.48786604  .00000005  00000-0  19612-4 0  9990
2 22825  98.7626 168.0040 0008139 186.6124 173.4951 14.29962556191287
Epoch (UTC): 29 July 2016 11:42:31
Eccentricity: 0.0008139
inclination: 98.7626°
perigee height: 786 km
apogee height: 797 km
right ascension of ascending node: 168.0040°
argument of perigee: 186.6124°
revolutions per day: 14.29962556
mean anomaly at epoch: 173.4951°
orbit number at epoch: 19128

The dashed part of the orbit path shows where the satellite is in the earth's shadow,  

DLR